RH
26 27 32 37 36 37 38 37 35 34 29 26 26 23 20 22 25 26 26 23 23 26 26 24 22 20 20 18 17 17 17 16 14 13 11 11 11 12 13 14 14 15 16 17
33 30 29 37 34 34 34 36 38 36 30 28 24 24 21 24 25 25 25 25 27 27 26 24 23 22 21 21 21 20 18 17 17 16 16 15 14 13 15 17 19 21 20 20
30 30 35 29 32 36 36 34 36 34 30 26 23 21 19 27 28 30 29 29 29 28 27 26 25 24 23 23 23 23 21 19 18 17 17 16 15 15 17 21 22 27 28 28
37 33 32 36 32 31 33 35 35 36 35 30 26 24 22 31 31 32 32 32 31 29 28 28 27 26 25 25 25 24 23 20 19 19 19 18 18 18 21 25 30 31 31 32
37 36 36 34 36 37 30 31 34 35 34 31 28 28 22 34 37 36 36 35 33 32 30 29 30 29 28 27 26 26 25 22 20 19 19 19 19 21 23 29 37 42 35 39
34 35 37 38 36 38 38 33 34 35 34 33 29 30 21 38 31 33 35 35 33 32 32 31 31 30 30 29 28 26 26 22 19 19 18 18 20 24 26 32 43 49 38 42
36 34 40 40 38 39 39 42 42 35 36 31 27 29 20 28 27 28 32 36 36 36 35 35 34 33 33 32 30 29 27 23 18 17 16 19 22 28 32 37 52 54 47 55
51 48 42 36 36 37 41 43 53 54 50 39 32 28 25 34 34 35 37 41 42 42 41 39 37 37 37 35 32 30 26 20 18 17 16 20 25 28 34 42 57 59 55 72
49 44 40 38 42 44 41 42 45 54 54 55 43 44 40 43 45 44 45 47 49 49 46 44 41 39 39 39 33 29 24 20 19 18 19 21 23 28 34 45 62 66 66 81
48 50 38 36 42 45 45 47 54 55 53 50 40 44 45 50 50 51 53 52 53 51 49 46 44 44 44 39 34 29 21 21 21 21 23 22 22 29 35 46 58 66 74 84
60 66 53 46 45 46 48 53 52 54 58 61 59 45 47 47 51 54 56 58 57 54 51 50 50 48 44 39 34 25 23 22 22 23 22 21 24 27 36 45 55 74 68 84
61 75 73 57 52 52 47 50 51 65 58 65 67 48 54 57 61 61 62 62 61 57 56 55 51 47 43 37 27 25 24 23 25 24 22 24 27 28 31 43 53 70 75 77
59 84 94 78 72 63 56 53 54 60 63 63 71 52 63 65 67 70 70 69 67 65 62 55 54 48 42 33 29 25 26 24 25 25 23 25 27 27 30 38 50 59 78 80
65 64 62 66 55 55 56 58 57 67 78 61 61 65 73 71 72 75 75 73 72 70 66 56 50 48 42 33 28 25 25 25 26 26 25 26 27 29 30 34 47 56 71 85
83 87 76 62 58 57 62 68 74 83 71 83 73 74 65 71 72 75 76 76 76 71 64 58 54 49 39 29 25 25 25 27 27 29 27 27 27 30 32 35 43 54 64 80
77 93 93 84 74 74 76 77 75 76 69 76 70 61 63 67 74 79 79 80 78 73 68 62 56 48 33 28 27 26 28 29 29 30 30 29 30 31 34 36 39 50 59 75
98 98 95 92 83 91 97 64 74 75 76 76 67 61 76 79 77 81 83 79 78 76 72 66 61 43 34 33 30 31 34 33 33 34 34 32 34 34 35 36 40 44 53 70
91 98 98 96 92 96 62 58 62 70 64 65 64 68 70 75 79 83 83 81 82 77 70 64 51 41 34 32 36 39 37 36 36 38 37 36 38 39 37 37 41 43 50 62
73 92 98 97 89 73 58 51 56 66 58 64 68 67 71 73 79 81 81 82 77 69 63 53 46 39 37 38 39 40 39 39 41 40 41 41 42 43 41 40 42 47 51 58
65 79 92 95 96 87 54 55 62 64 61 62 73 75 74 76 84 84 81 80 74 67 57 53 45 42 41 41 42 42 43 42 41 42 44 46 47 49 49 46 47 51 53 61
65 78 85 94 93 76 57 65 66 72 68 72 73 75 76 83 81 82 78 78 72 65 56 47 45 44 42 40 44 43 42 43 45 47 50 53 53 55 56 54 53 56 58 63
72 86 89 96 96 82 67 67 69 71 73 75 78 82 82 85 81 79 78 69 65 56 49 47 44 43 43 44 44 43 44 46 48 52 55 59 61 62 62 63 62 65 65 70
81 75 81 87 79 69 71 70 73 75 78 81 83 87 84 80 78 76 70 61 52 49 47 46 44 41 43 46 47 49 50 51 55 58 62 68 74 76 76 74 75 72 75 74
72 71 68 65 75 78 78 80 82 83 84 86 88 86 81 78 72 58 51 49 47 45 43 41 42 45 48 51 55 57 58 61 64 67 70 75 79 86 86 86 92 88 83 79
74 69 74 84 85 86 88 87 87 87 93 94 88 80 69 61 51 51 48 43 38 41 41 44 47 51 53 59 65 66 66 69 71 73 78 85 87 93 96 96 96 94 89 82
67 73 80 85 88 80 88 93 95 96 96 88 74 62 57 54 49 43 39 40 42 43 45 47 48 51 56 61 65 65 67 70 75 79 84 88 93 94 97 97 97 97 95 89